Location: Binningen
(47.7924°N, 8.7261°E)
Time: 15:03:35
(UTC+00:00)

Terra - Pass Details

Date: 27 September 2021
Orbit: 701 x 703 km, 98.2° (Epoch: 28 October)

Event Time Altitude Azimuth Distance (km) Brightness Sun altitude
Exits shadow 21:17:17 18° 347° (NNW) 1,689 4.3 -37.5°
Drops below altitude 10° 21:18:31 10° 347° (NNW) 2,182 5.0 -37.7°
Sets 21:20:47 0° 347° (NNW) 3,105 5.9 -37.9°
